| time (UTC) | temp C | wind direction | speed KPH | gust KPH | rain 1hr cm | rain 24hr cm | rain mn cm | humidity % | barometer mb |
| 20260507171814 | 15 | 296 | 4.8 | 16.1 | 0.00 | 0.97 | 0.08 | 74 | 1013.3 |
| 20260507171315 | 15 | 284 | 8.0 | 16.1 | 0.00 | 1.02 | 0.08 | 73 | 1013.3 |
| 20260507165813 | 15 | 334 | 4.8 | 14.5 | 0.00 | 1.09 | 0.08 | 71 | 1013.3 |
| 20260507165315 | 15 | 321 | 6.4 | 14.5 | 0.00 | 1.09 | 0.08 | 70 | 1013.4 |
| 20260507164314 | 16 | 294 | 4.8 | 19.3 | 0.00 | 1.09 | 0.08 | 68 | 1013.4 |
| 20260507163814 | 16 | 298 | 6.4 | 19.3 | 0.00 | 1.09 | 0.08 | 66 | 1013.0 |
| 20260507163314 | 16 | 272 | 4.8 | 16.1 | 0.00 | 1.09 | 0.08 | 65 | 1013.0 |
| 20260507162314 | 17 | 282 | 4.8 | 16.1 | 0.00 | 1.09 | 0.08 | 62 | 1013.0 |
| 20260507161314 | 17 | 329 | 3.2 | 8.0 | 0.00 | 1.09 | 0.08 | 63 | 1012.9 |
| 20260507160814 | 18 | 225 | 3.2 | 16.1 | 0.00 | 1.09 | 0.08 | 62 | 1012.9 |
| 20260507160314 | 18 | 333 | 4.8 | 16.1 | 0.00 | 1.09 | 0.08 | 63 | 1012.9 |
| 20260507155815 | 18 | 44 | 1.6 | 4.8 | 0.00 | 1.09 | 0.08 | 62 | 1012.8 |
| 20260507155314 | 18 | 0 | 0.0 | 4.8 | 0.00 | 1.09 | 0.08 | 61 | 1012.7 |
| 20260507154814 | 18 | 40 | 1.6 | 9.7 | 0.00 | 1.09 | 0.08 | 60 | 1012.6 |
| 20260507154314 | 18 | 276 | 4.8 | 9.7 | 0.00 | 1.09 | 0.08 | 60 | 1012.4 |
| 20260507153813 | 18 | 98 | 3.2 | 4.8 | 0.00 | 1.09 | 0.08 | 61 | 1012.2 |
| 20260507153314 | 18 | 31 | 1.6 | 4.8 | 0.00 | 1.09 | 0.08 | 62 | 1012.2 |
| 20260507152814 | 19 | 207 | 1.6 | 3.2 | 0.00 | 1.09 | 0.08 | 61 | 1012.1 |
| 20260507152314 | 19 | 208 | 1.6 | 3.2 | 0.00 | 1.09 | 0.08 | 60 | 1012.0 |
| 20260507151814 | 19 | 207 | 1.6 | 3.2 | 0.00 | 1.09 | 0.08 | 58 | 1011.8 |
| 20260507150813 | 20 | 211 | 1.6 | 4.8 | 0.00 | 1.09 | 0.08 | 56 | 1011.4 |
| 20260507150314 | 20 | 107 | 3.2 | 4.8 | 0.00 | 1.09 | 0.08 | 56 | 1011.2 |
| 20260507145814 | 20 | 29 | 1.6 | 11.3 | 0.00 | 1.09 | 0.08 | 53 | 1011.0 |
| 20260507145314 | 20 | 76 | 4.8 | 11.3 | 0.00 | 1.09 | 0.08 | 53 | 1011.1 |
| 20260507144814 | 20 | 103 | 3.2 | 9.7 | 0.00 | 1.09 | 0.08 | 55 | 1010.9 |
| 20260507144314 | 21 | 125 | 4.8 | 9.7 | 0.00 | 1.09 | 0.08 | 54 | 1010.9 |
| 20260507143815 | 21 | 165 | 4.8 | 9.7 | 0.00 | 1.09 | 0.08 | 53 | 1010.9 |
| 20260507143314 | 21 | 103 | 3.2 | 14.5 | 0.00 | 1.09 | 0.08 | 55 | 1010.9 |
| 20260507142314 | 21 | 142 | 4.8 | 12.9 | 0.00 | 1.09 | 0.08 | 54 | 1010.9 |
| 20260507141814 | 21 | 163 | 3.2 | 8.0 | 0.00 | 1.09 | 0.08 | 55 | 1010.9 |
| 20260507141314 | 21 | 330 | 3.2 | 14.5 | 0.00 | 1.09 | 0.08 | 59 | 1010.9 |
| 20260507140814 | 21 | 111 | 4.8 | 14.5 | 0.00 | 1.09 | 0.08 | 55 | 1011.0 |
| 20260507140314 | 21 | 139 | 4.8 | 14.5 | 0.00 | 1.09 | 0.08 | 57 | 1011.0 |
| 20260507135813 | 21 | 104 | 4.8 | 14.5 | 0.00 | 1.09 | 0.08 | 55 | 1011.0 |
| 20260507134814 | 21 | 104 | 4.8 | 14.5 | 0.00 | 1.09 | 0.08 | 55 | 1011.1 |
| 20260507134314 | 21 | 120 | 4.8 | 14.5 | 0.00 | 1.09 | 0.08 | 55 | 1011.1 |
| 20260507133813 | 21 | 128 | 8.0 | 14.5 | 0.00 | 1.09 | 0.08 | 54 | 1011.1 |
| 20260507133314 | 21 | 87 | 4.8 | 12.9 | 0.00 | 1.09 | 0.08 | 54 | 1011.1 |
| 20260507132813 | 22 | 93 | 3.2 | 19.3 | 0.00 | 1.09 | 0.08 | 52 | 1011.1 |
| 20260507131814 | 22 | 132 | 8.0 | 14.5 | 0.00 | 1.09 | 0.08 | 52 | 1011.2 |
| 20260507130813 | 21 | 175 | 1.6 | 9.7 | 0.00 | 1.17 | 0.08 | 50 | 1011.3 |
| 20260507130313 | 22 | 337 | 4.8 | 14.5 | 0.00 | 1.17 | 0.08 | 53 | 1011.3 |
| 20260507125813 | 22 | 107 | 4.8 | 14.5 | 0.00 | 1.22 | 0.08 | 52 | 1011.3 |
| 20260507124814 | 21 | 91 | 4.8 | 14.5 | 0.00 | 1.35 | 0.08 | 53 | 1011.2 |
| 20260507123813 | 20 | 107 | 6.4 | 12.9 | 0.00 | 1.42 | 0.08 | 64 | 1011.3 |
| 20260507122813 | 20 | 326 | 3.2 | 12.9 | 0.00 | 1.45 | 0.08 | 67 | 1011.3 |
| 20260507121815 | 20 | 305 | 3.2 | 4.8 | 0.00 | 1.50 | 0.08 | 63 | 1011.4 |
| 20260507121313 | 21 | 322 | 3.2 | 4.8 | 0.00 | 1.55 | 0.08 | 63 | 1011.4 |
| 20260507120814 | 21 | 26 | 3.2 | 4.8 | 0.00 | 1.63 | 0.08 | 63 | 1011.4 |
| 20260507120313 | 21 | 334 | 1.6 | 4.8 | 0.00 | 1.65 | 0.08 | 63 | 1011.4 |
| 20260507115814 | 20 | 332 | 1.6 | 4.8 | 0.00 | 1.65 | 0.08 | 62 | 1011.4 |
| 20260507114814 | 20 | 330 | 1.6 | 3.2 | 0.00 | 1.75 | 0.08 | 69 | 1011.5 |
| 20260507113813 | 19 | 329 | 1.6 | 4.8 | 0.00 | 1.85 | 0.08 | 72 | 1011.6 |
| 20260507113313 | 20 | 329 | 1.6 | 4.8 | 0.00 | 1.91 | 0.08 | 74 | 1011.6 |
| 20260507112813 | 20 | 355 | 3.2 | 4.8 | 0.00 | 1.93 | 0.08 | 70 | 1011.7 |
| 20260507112314 | 19 | 355 | 1.6 | 4.8 | 0.00 | 1.96 | 0.08 | 73 | 1011.7 |
| 20260507111814 | 19 | 355 | 3.2 | 4.8 | 0.00 | 2.01 | 0.08 | 70 | 1011.7 |
| 20260507110814 | 19 | 355 | 1.6 | 4.8 | 0.00 | 2.03 | 0.08 | 73 | 1011.9 |
| 20260507110313 | 18 | 355 | 3.2 | 4.8 | 0.00 | 2.03 | 0.08 | 75 | 1011.9 |
| 20260507105813 | 18 | 355 | 0.0 | 4.8 | 0.00 | 2.03 | 0.08 | 74 | 1011.9 |
| 20260507105313 | 18 | 355 | 1.6 | 4.8 | 0.00 | 2.03 | 0.08 | 74 | 1012.0 |
| 20260507104313 | 18 | 355 | 0.0 | 4.8 | 0.00 | 2.03 | 0.08 | 77 | 1012.0 |
| 20260507103813 | 18 | 355 | 1.6 | 4.8 | 0.00 | 2.06 | 0.08 | 76 | 1012.0 |
| 20260507102813 | 19 | 355 | 0.0 | 3.2 | 0.00 | 2.11 | 0.08 | 75 | 1012.1 |
| 20260507102313 | 19 | 355 | 0.0 | 4.8 | 0.00 | 2.11 | 0.08 | 70 | 1012.1 |
| 20260507101814 | 19 | 355 | 1.6 | 11.3 | 0.00 | 2.13 | 0.08 | 72 | 1012.1 |
| 20260507101314 | 20 | 30 | 3.2 | 11.3 | 0.00 | 2.13 | 0.08 | 71 | 1012.1 |
| 20260507100813 | 20 | 131 | 4.8 | 11.3 | 0.00 | 2.13 | 0.08 | 67 | 1012.1 |
| 20260507100313 | 20 | 111 | 3.2 | 9.7 | 0.00 | 2.13 | 0.08 | 70 | 1012.1 |
| 20260507095813 | 20 | 113 | 3.2 | 11.3 | 0.00 | 2.13 | 0.08 | 67 | 1012.1 |
| 20260507095313 | 20 | 136 | 4.8 | 11.3 | 0.00 | 2.13 | 0.08 | 67 | 1012.0 |
| 20260507094813 | 20 | 129 | 4.8 | 11.3 | 0.00 | 2.13 | 0.08 | 69 | 1012.1 |
| 20260507094314 | 20 | 98 | 3.2 | 4.8 | 0.00 | 2.16 | 0.08 | 72 | 1012.1 |
| 20260507093813 | 19 | 97 | 1.6 | 4.8 | 0.00 | 2.16 | 0.08 | 71 | 1012.1 |
| 20260507093313 | 19 | 97 | 1.6 | 4.8 | 0.00 | 2.16 | 0.08 | 73 | 1012.1 |
| 20260507092814 | 19 | 97 | 3.2 | 8.0 | 0.00 | 2.16 | 0.08 | 74 | 1012.1 |
| 20260507092313 | 18 | 140 | 1.6 | 8.0 | 0.00 | 2.16 | 0.08 | 74 | 1012.1 |
| 20260507091814 | 18 | 172 | 3.2 | 4.8 | 0.00 | 2.18 | 0.08 | 74 | 1012.1 |
| 20260507091314 | 18 | 173 | 1.6 | 4.8 | 0.00 | 2.18 | 0.08 | 76 | 1012.0 |
| 20260507090813 | 19 | 173 | 1.6 | 4.8 | 0.00 | 2.18 | 0.08 | 74 | 1012.1 |
| 20260507085313 | 18 | 163 | 3.2 | 4.8 | 0.00 | 2.24 | 0.08 | 77 | 1012.0 |
| 20260507083814 | 18 | 124 | 4.8 | 11.3 | 0.00 | 2.34 | 0.08 | 82 | 1012.1 |
| 20260507082813 | 18 | 157 | 3.2 | 11.3 | 0.00 | 2.49 | 0.08 | 82 | 1012.0 |
| 20260507081814 | 18 | 101 | 3.2 | 11.3 | 0.00 | 2.72 | 0.08 | 84 | 1012.1 |
| 20260507081313 | 17 | 105 | 4.8 | 9.7 | 0.00 | 2.79 | 0.08 | 86 | 1012.0 |
| 20260507080814 | 17 | 133 | 4.8 | 4.8 | 0.00 | 2.87 | 0.08 | 87 | 1012.0 |
| 20260507075813 | 17 | 116 | 1.6 | 4.8 | 0.00 | 3.00 | 0.08 | 84 | 1012.0 |
| 20260507075313 | 17 | 116 | 1.6 | 4.8 | 0.00 | 3.02 | 0.08 | 85 | 1012.1 |
| 20260507074813 | 17 | 116 | 1.6 | 4.8 | 0.00 | 3.05 | 0.08 | 86 | 1012.0 |
| 20260507074313 | 17 | 112 | 3.2 | 4.8 | 0.00 | 3.07 | 0.08 | 86 | 1012.0 |
| 20260507073813 | 17 | 112 | 1.6 | 4.8 | 0.00 | 3.10 | 0.08 | 89 | 1011.9 |
| 20260507073314 | 16 | 117 | 1.6 | 4.8 | 0.00 | 3.15 | 0.08 | 89 | 1012.0 |
| 20260507072313 | 16 | 135 | 1.6 | 9.7 | 0.00 | 3.25 | 0.08 | 89 | 1011.8 |
| 20260507071813 | 16 | 314 | 1.6 | 9.7 | 0.00 | 3.30 | 0.08 | 90 | 1011.9 |
| 20260507071313 | 17 | 136 | 4.8 | 9.7 | 0.00 | 3.35 | 0.08 | 90 | 1011.9 |
| 20260507070813 | 17 | 103 | 1.6 | 4.8 | 0.00 | 3.43 | 0.08 | 90 | 1011.9 |
| 20260507070313 | 16 | 190 | 1.6 | 4.8 | 0.00 | 3.51 | 0.08 | 91 | 1011.8 |
| 20260507065813 | 16 | 190 | 1.6 | 4.8 | 0.00 | 3.56 | 0.08 | 91 | 1011.8 |
| 20260507065313 | 16 | 190 | 0.0 | 3.2 | 0.00 | 3.61 | 0.08 | 91 | 1011.9 |
| 20260507064813 | 16 | 190 | 1.6 | 3.2 | 0.00 | 3.63 | 0.08 | 91 | 1011.8 |
| 20260507064313 | 16 | 152 | 1.6 | 3.2 | 0.00 | 3.66 | 0.08 | 94 | 1011.8 |
| 20260507063813 | 15 | 152 | 0.0 | 1.6 | 0.00 | 3.71 | 0.08 | 96 | 1011.7 |
| 20260507063313 | 15 | 152 | 0.0 | 3.2 | 0.00 | 3.76 | 0.08 | 97 | 1011.7 |
| 20260507062813 | 15 | 152 | 1.6 | 4.8 | 0.00 | 3.81 | 0.08 | 98 | 1011.7 |
| 20260507062313 | 14 | 144 | 1.6 | 4.8 | 0.00 | 3.81 | 0.08 | 98 | 1011.7 |
| 20260507061313 | 14 | 166 | 0.0 | 3.2 | 0.00 | 3.81 | 0.08 | 99 | 1011.8 |
| 20260507060813 | 13 | 149 | 1.6 | 3.2 | 0.00 | 3.81 | 0.08 | 99 | 1011.8 |
| 20260507060313 | 13 | 147 | 0.0 | 3.2 | 0.00 | 3.81 | 0.08 | 98 | 1011.8 |
| 20260507055313 | 13 | 147 | 0.0 | 1.6 | 0.00 | 3.81 | 0.08 | 99 | 1011.7 |
| 20260507054813 | 13 | 147 | 0.0 | 1.6 | 0.00 | 3.81 | 0.08 | 99 | 1011.8 |
| 20260507054313 | 13 | 147 | 0.0 | 3.2 | 0.00 | 3.81 | 0.08 | 99 | 1011.8 |
| 20260507053813 | 12 | 147 | 0.0 | 3.2 | 0.00 | 3.81 | 0.08 | 99 | 1011.8 |
| 20260507053313 | 12 | 155 | 1.6 | 4.8 | 0.00 | 3.81 | 0.08 | 98 | 1011.7 |
| 20260507052812 | 12 | 156 | 1.6 | 4.8 | 0.00 | 3.81 | 0.08 | 98 | 1011.6 |
| 20260507052313 | 12 | 156 | 3.2 | 4.8 | 0.00 | 3.81 | 0.08 | 99 | 1011.6 |
| 20260507051813 | 12 | 177 | 0.0 | 3.2 | 0.00 | 3.81 | 0.08 | 98 | 1011.4 |
| 20260507051313 | 12 | 152 | 0.0 | 0.0 | 0.00 | 3.81 | 0.08 | 98 | 1011.4 |
| 20260507050313 | 12 | 153 | 0.0 | 0.0 | 0.00 | 3.81 | 0.08 | 98 | 1011.3 |
| 20260507045813 | 12 | 153 | 0.0 | 1.6 | 0.00 | 3.81 | 0.08 | 98 | 1011.3 |
| 20260507045312 | 12 | 153 | 0.0 | 3.2 | 0.00 | 3.81 | 0.08 | 98 | 1011.2 |
| 20260507044813 | 12 | 153 | 0.0 | 3.2 | 0.00 | 3.81 | 0.08 | 98 | 1011.2 |
| 20260507044313 | 12 | 153 | 1.6 | 3.2 | 0.00 | 3.81 | 0.08 | 98 | 1011.1 |
| 20260507043813 | 12 | 153 | 0.0 | 1.6 | 0.00 | 3.81 | 0.08 | 98 | 1011.0 |
| 20260507043312 | 12 | 153 | 0.0 | 1.6 | 0.00 | 3.81 | 0.08 | 98 | 1011.1 |
| 20260507042814 | 12 | 153 | 0.0 | 3.2 | 0.00 | 3.81 | 0.08 | 98 | 1011.1 |
| 20260507042313 | 12 | 153 | 0.0 | 3.2 | 0.00 | 3.81 | 0.08 | 98 | 1011.0 |
| 20260507041813 | 12 | 153 | 1.6 | 3.2 | 0.00 | 3.81 | 0.08 | 98 | 1011.0 |
| 20260507041312 | 12 | 155 | 0.0 | 3.2 | 0.00 | 3.81 | 0.08 | 98 | 1011.1 |
| 20260507040813 | 12 | 153 | 1.6 | 3.2 | 0.00 | 3.81 | 0.08 | 98 | 1011.0 |
| 20260507040312 | 12 | 153 | 0.0 | 3.2 | 0.00 | 3.81 | 0.08 | 98 | 1010.9 |
| 20260507035813 | 12 | 153 | 0.0 | 3.2 | 0.00 | 3.81 | 0.08 | 98 | 1010.9 |
| 20260507035314 | 12 | 153 | 0.0 | 0.0 | 0.00 | 3.81 | 0.08 | 98 | 1010.9 |
| 20260507034312 | 12 | 153 | 0.0 | 3.2 | 0.00 | 3.81 | 0.08 | 98 | 1010.8 |
| 20260507033813 | 12 | 153 | 0.0 | 3.2 | 0.00 | 3.81 | 0.08 | 98 | 1010.9 |
| 20260507033312 | 12 | 153 | 0.0 | 1.6 | 0.00 | 3.81 | 0.08 | 98 | 1010.8 |
| 20260507032813 | 12 | 153 | 0.0 | 3.2 | 0.00 | 3.81 | 0.08 | 98 | 1010.8 |
| 20260507032313 | 12 | 153 | 0.0 | 3.2 | 0.00 | 3.81 | 0.08 | 98 | 1010.8 |
| 20260507031813 | 12 | 153 | 0.0 | 3.2 | 0.00 | 3.81 | 0.08 | 98 | 1010.8 |
| 20260507031312 | 12 | 153 | 0.0 | 3.2 | 0.00 | 3.81 | 0.08 | 98 | 1010.7 |
| 20260507030814 | 12 | 153 | 1.6 | 3.2 | 0.00 | 3.91 | 0.08 | 98 | 1010.8 |
| 20260507030312 | 12 | 153 | 1.6 | 3.2 | 0.00 | 3.94 | 0.08 | 98 | 1010.8 |
| 20260507025812 | 12 | 154 | 0.0 | 3.2 | 0.00 | 4.09 | 0.08 | 98 | 1010.8 |
| 20260507025313 | 12 | 153 | 0.0 | 4.8 | 0.00 | 4.09 | 0.08 | 98 | 1010.7 |
| 20260507023812 | 12 | 138 | 0.0 | 4.8 | 0.00 | 4.09 | 0.08 | 98 | 1010.7 |
| 20260507023312 | 12 | 138 | 0.0 | 4.8 | 0.00 | 4.09 | 0.08 | 98 | 1010.7 |
| 20260507022813 | 12 | 138 | 1.6 | 4.8 | 0.00 | 4.09 | 0.08 | 98 | 1010.5 |
| 20260507022312 | 12 | 138 | 1.6 | 3.2 | 0.00 | 4.09 | 0.08 | 98 | 1010.5 |
| 20260507021813 | 12 | 138 | 0.0 | 3.2 | 0.00 | 4.09 | 0.08 | 98 | 1010.6 |
| 20260507021312 | 12 | 138 | 0.0 | 1.6 | 0.00 | 4.09 | 0.08 | 98 | 1010.6 |
| 20260507015312 | 12 | 137 | 1.6 | 4.8 | 0.00 | 4.09 | 0.08 | 98 | 1010.6 |
| 20260507014812 | 12 | 122 | 0.0 | 3.2 | 0.03 | 4.09 | 0.08 | 98 | 1010.6 |
| 20260507014312 | 12 | 122 | 0.0 | 3.2 | 0.03 | 4.09 | 0.08 | 98 | 1010.7 |
| 20260507013812 | 12 | 122 | 0.0 | 0.0 | 0.03 | 4.09 | 0.08 | 98 | 1010.7 |
| 20260507013313 | 13 | 122 | 0.0 | 3.2 | 0.03 | 4.09 | 0.08 | 98 | 1010.6 |
| 20260507012813 | 13 | 122 | 1.6 | 4.8 | 0.03 | 4.09 | 0.08 | 98 | 1010.5 |
| 20260507011813 | 13 | 300 | 1.6 | 3.2 | 0.03 | 4.09 | 0.08 | 98 | 1010.4 |
| 20260507011312 | 12 | 299 | 0.0 | 3.2 | 0.03 | 4.11 | 0.08 | 98 | 1010.4 |
| 20260507010813 | 13 | 300 | 0.0 | 4.8 | 0.03 | 4.11 | 0.08 | 98 | 1010.4 |
| 20260507010312 | 13 | 300 | 1.6 | 4.8 | 0.03 | 4.14 | 0.08 | 98 | 1010.4 |
| 20260507005813 | 13 | 299 | 0.0 | 4.8 | 0.03 | 4.17 | 0.08 | 98 | 1010.4 |
| 20260507005312 | 13 | 299 | 1.6 | 3.2 | 0.03 | 4.17 | 0.08 | 98 | 1010.4 |
| 20260507004812 | 13 | 299 | 0.0 | 3.2 | 0.00 | 4.17 | 0.05 | 98 | 1010.4 |
| 20260507004312 | 13 | 299 | 1.6 | 3.2 | 0.00 | 4.19 | 0.05 | 98 | 1010.5 |
| 20260507003813 | 13 | 299 | 0.0 | 3.2 | 0.00 | 4.19 | 0.05 | 98 | 1010.5 |
| 20260507003312 | 13 | 299 | 0.0 | 4.8 | 0.00 | 4.19 | 0.05 | 98 | 1010.6 |
| 20260507002813 | 13 | 299 | 1.6 | 4.8 | 0.00 | 4.22 | 0.05 | 98 | 1010.7 |
| 20260507002312 | 13 | 167 | 1.6 | 4.8 | 0.00 | 4.22 | 0.05 | 98 | 1010.8 |
| 20260507001812 | 13 | 296 | 0.0 | 4.8 | 0.00 | 4.29 | 0.05 | 98 | 1010.8 |
| 20260507001312 | 12 | 296 | 1.6 | 4.8 | 0.00 | 4.29 | 0.05 | 98 | 1010.7 |
| 20260507000813 | 13 | 296 | 1.6 | 4.8 | 0.00 | 4.29 | 0.05 | 98 | 1010.7 |
| 20260507000314 | 13 | 296 | 1.6 | 4.8 | 0.00 | 4.29 | 0.05 | 98 | 1010.7 |
| 20260506235812 | 13 | 296 | 3.2 | 4.8 | 0.00 | 4.29 | 0.05 | 98 | 1010.7 |
| 20260506235313 | 12 | 296 | 0.0 | 4.8 | 0.00 | 4.29 | 0.05 | 98 | 1010.7 |
| 20260506234312 | 12 | 295 | 1.6 | 4.8 | 0.00 | 4.29 | 0.05 | 98 | 1010.9 |
| 20260506233812 | 12 | 295 | 1.6 | 4.8 | 0.00 | 4.29 | 0.05 | 98 | 1010.8 |
| 20260506233312 | 13 | 296 | 0.0 | 4.8 | 0.00 | 4.32 | 0.05 | 98 | 1010.9 |
| 20260506232812 | 13 | 272 | 1.6 | 4.8 | 0.00 | 4.34 | 0.05 | 98 | 1011.0 |
| 20260506232312 | 13 | 245 | 0.0 | 4.8 | 0.03 | 4.39 | 0.05 | 98 | 1011.0 |
| 20260506231812 | 13 | 245 | 3.2 | 4.8 | 0.05 | 4.47 | 0.05 | 98 | 1010.9 |
| 20260506231313 | 13 | 146 | 1.6 | 3.2 | 0.05 | 4.50 | 0.05 | 98 | 1010.9 |
| 20260506230812 | 13 | 146 | 0.0 | 1.6 | 0.05 | 4.57 | 0.05 | 98 | 1011.1 |
| 20260506230312 | 13 | 146 | 1.6 | 3.2 | 0.05 | 4.62 | 0.05 | 98 | 1011.0 |
| 20260506225812 | 13 | 146 | 1.6 | 3.2 | 0.05 | 4.67 | 0.05 | 98 | 1010.9 |
| 20260506225313 | 13 | 146 | 1.6 | 3.2 | 0.05 | 4.75 | 0.05 | 98 | 1010.9 |
| 20260506224812 | 13 | 146 | 0.0 | 3.2 | 0.05 | 4.75 | 0.05 | 98 | 1010.9 |
| 20260506224312 | 13 | 146 | 1.6 | 3.2 | 0.08 | 4.75 | 0.05 | 98 | 1010.8 |
| 20260506223812 | 13 | 145 | 1.6 | 3.2 | 0.08 | 4.75 | 0.05 | 98 | 1010.8 |
| 20260506222812 | 13 | 144 | 1.6 | 8.0 | 0.08 | 4.78 | 0.05 | 98 | 1010.8 |
| 20260506222312 | 13 | 354 | 3.2 | 8.0 | 0.05 | 4.75 | 0.05 | 98 | 1010.7 |
| 20260506221812 | 13 | 173 | 3.2 | 8.0 | 0.05 | 4.75 | 0.03 | 98 | 1010.7 |
| 20260506221312 | 13 | 264 | 1.6 | 4.8 | 0.03 | 4.72 | 0.00 | 98 | 1010.7 |
| 20260506220819 | 13 | 265 | 0.0 | 9.7 | 0.03 | 4.72 | 0.00 | 98 | 1010.7 |
| 20260506215312 | 13 | 272 | 1.6 | 3.2 | 0.08 | 4.72 | 4.72 | 98 | 1010.5 |
| 20260506214811 | 13 | 272 | 0.0 | 3.2 | 0.08 | 4.72 | 4.72 | 98 | 1010.7 |
| 20260506214312 | 13 | 272 | 1.6 | 3.2 | 0.08 | 4.72 | 4.72 | 98 | 1010.7 |
| 20260506213812 | 13 | 272 | 1.6 | 3.2 | 0.05 | 4.70 | 4.70 | 98 | 1010.6 |
| 20260506213312 | 13 | 246 | 0.0 | 3.2 | 0.05 | 4.70 | 4.70 | 98 | 1010.6 |
| 20260506212812 | 13 | 246 | 0.0 | 4.8 | 0.05 | 4.70 | 4.70 | 98 | 1010.6 |
| 20260506212312 | 13 | 246 | 1.6 | 4.8 | 0.05 | 4.72 | 4.70 | 98 | 1010.6 |
| 20260506211812 | 13 | 236 | 1.6 | 3.2 | 0.05 | 4.75 | 4.70 | 98 | 1010.6 |
| 20260506211312 | 13 | 236 | 0.0 | 3.2 | 0.05 | 4.75 | 4.70 | 98 | 1010.6 |
| 20260506210811 | 13 | 236 | 0.0 | 3.2 | 0.05 | 4.75 | 4.70 | 98 | 1010.7 |
| 20260506210312 | 13 | 235 | 1.6 | 4.8 | 0.05 | 4.72 | 4.67 | 98 | 1010.7 |
| 20260506205311 | 13 | 225 | 1.6 | 3.2 | 0.00 | 4.67 | 4.65 | 98 | 1010.9 |
| 20260506204812 | 13 | 225 | 0.0 | 3.2 | 0.00 | 4.67 | 4.65 | 98 | 1010.9 |
| 20260506203812 | 13 | 225 | 1.6 | 4.8 | 0.00 | 4.70 | 4.65 | 98 | 1010.9 |
| 20260506203312 | 13 | 217 | 3.2 | 8.0 | 0.00 | 4.70 | 4.65 | 98 | 1010.7 |
| 20260506202812 | 13 | 168 | 1.6 | 8.0 | 0.00 | 4.70 | 4.65 | 98 | 1010.7 |
| 20260506202312 | 13 | 274 | 1.6 | 3.2 | 0.05 | 4.70 | 4.65 | 98 | 1010.6 |
| 20260506201812 | 13 | 273 | 0.0 | 3.2 | 0.08 | 4.72 | 4.65 | 98 | 1010.5 |
| 20260506201312 | 13 | 274 | 1.6 | 3.2 | 0.15 | 4.75 | 4.65 | 98 | 1010.5 |
| 20260506200812 | 13 | 274 | 0.0 | 3.2 | 0.25 | 4.80 | 4.65 | 98 | 1010.5 |
| 20260506200312 | 13 | 274 | 0.0 | 3.2 | 0.43 | 4.80 | 4.65 | 98 | 1010.6 |
| 20260506195812 | 13 | 274 | 0.0 | 3.2 | 0.48 | 4.85 | 4.65 | 98 | 1010.6 |
| 20260506195312 | 13 | 274 | 0.0 | 4.8 | 0.61 | 4.90 | 4.65 | 98 | 1010.6 |
| 20260506193813 | 13 | 205 | 3.2 | 4.8 | 0.69 | 5.16 | 4.65 | 97 | 1010.3 |
| 20260506193311 | 13 | 94 | 1.6 | 4.8 | 0.71 | 5.23 | 4.65 | 97 | 1010.2 |
| 20260506192811 | 13 | 340 | 3.2 | 4.8 | 0.71 | 5.28 | 4.65 | 97 | 1010.1 |
| 20260506192312 | 13 | 340 | 1.6 | 4.8 | 0.66 | 5.31 | 4.60 | 97 | 1009.9 |
| 20260506191811 | 13 | 340 | 1.6 | 4.8 | 0.61 | 5.31 | 4.57 | 97 | 1009.7 |
| 20260506191312 | 13 | 313 | 4.8 | 4.8 | 0.53 | 5.31 | 4.47 | 97 | 1009.8 |
| 20260506190812 | 13 | 186 | 3.2 | 4.8 | 0.43 | 5.28 | 4.37 | 97 | 1009.8 |
| 20260506190312 | 13 | 255 | 1.6 | 3.2 | 0.25 | 5.16 | 4.19 | 97 | 1009.5 |
| 20260506185812 | 13 | 255 | 1.6 | 4.8 | 0.23 | 5.16 | 4.17 | 97 | 1009.5 |
| 20260506185312 | 13 | 255 | 3.2 | 4.8 | 0.10 | 5.08 | 4.04 | 97 | 1009.4 |
| 20260506184812 | 13 | 255 | 1.6 | 4.8 | 0.03 | 5.05 | 3.96 | 97 | 1009.4 |
| 20260506184311 | 13 | 255 | 1.6 | 4.8 | 0.03 | 5.16 | 3.96 | 97 | 1009.3 |
| 20260506183812 | 13 | 252 | 1.6 | 4.8 | 0.03 | 5.23 | 3.96 | 97 | 1009.3 |
| 20260506182811 | 13 | 252 | 0.0 | 4.8 | 0.05 | 5.31 | 3.94 | 97 | 1009.5 |
| 20260506182312 | 13 | 252 | 0.0 | 4.8 | 0.05 | 5.41 | 3.94 | 97 | 1009.5 |
| 20260506181812 | 13 | 142 | 1.6 | 4.8 | 0.10 | 5.46 | 3.94 | 97 | 1009.4 |
| 20260506181311 | 13 | 265 | 0.0 | 4.8 | 0.15 | 5.51 | 3.94 | 97 | 1009.4 |
| 20260506180812 | 13 | 250 | 1.6 | 4.8 | 0.23 | 5.54 | 3.94 | 97 | 1009.4 |
| 20260506175811 | 13 | 147 | 3.2 | 4.8 | 0.23 | 5.59 | 3.94 | 97 | 1009.6 |
| 20260506174811 | 13 | 126 | 3.2 | 8.0 | 0.23 | 5.64 | 3.94 | 97 | 1009.6 |
| 20260506174312 | 13 | 109 | 3.2 | 9.7 | 0.23 | 5.69 | 3.94 | 97 | 1009.6 |
| 20260506173811 | 14 | 157 | 4.8 | 14.5 | 0.23 | 5.71 | 3.94 | 97 | 1009.3 |
| 20260506173312 | 14 | 127 | 8.0 | 14.5 | 0.23 | 5.74 | 3.94 | 97 | 1009.2 |
| 20260506172812 | 14 | 123 | 3.2 | 4.8 | 0.18 | 5.71 | 3.91 | 97 | 1009.1 |
| 20260506172312 | 14 | 123 | 3.2 | 4.8 | 0.15 | 5.74 | 3.89 | 97 | 1009.0 |